Location: Puerto de Lagarejo
(40.2998°N, 4.9197°W)
Time: 00:43:33
(UTC+00:00)

Daily predictions for brighter satellites

Satellite Brightness Start Highest point End
(mag) Time Altitude Azimuth Time Altitude Azimuth Time Altitude Azimuth
ATLAS 2AS CENTAUR R/B 4.1 03:09:31 28° NNW 03:09:31 28° NNW 03:14:11 10° NNE
ATLAS 3B R/B 4.4 03:14:59 23° SSE 03:14:59 23° SSE 03:17:23 10° SSE
CZ-2C R/B 4.2 03:16:00 10° NNE 03:19:53 44° NNE 03:19:53 44° NNE
Cosmos 1867 4.2 03:33:23 53° NE 03:33:32 53° NE 03:38:51 10° SE
BlueWalker 3 4.0 03:48:24 27° E 03:48:24 27° E 03:50:30 10° ESE
NOSS 3-1 (A) 4.0 03:43:24 22° NW 03:49:00 81° WSW 03:58:05 10° SSE
ADEOS II 4.4 03:47:01 10° NNW 03:47:29 12° NNW 03:47:29 12° NNW
IRS-1D 3.7 03:49:37 10° N 03:54:06 63° N 03:54:06 63° N
USA 281 4.1 03:49:17 10° N 03:54:08 33° NW 03:54:08 33° NW
Envisat 3.1 03:52:04 10° NNE 03:57:09 71° ESE 03:57:47 63° SSE
Cosmos 2297 Rocket 3.1 03:55:04 25° SSE 03:57:58 45° ESE 04:03:19 10° NE
Cosmos 1125 Rocket 4.3 04:06:14 37° NNW 04:06:14 37° NNW 04:09:50 10° N
Lacrosse 5 rocket 3.7 04:06:40 14° N 04:06:40 14° N 04:07:50 10° NNE
Cosmos 1536 3.8 04:04:32 10° N 04:07:16 40° NNE 04:07:16 40° NNE
Cosmos 2237 Rocket 3.5 04:05:34 10° N 04:10:53 39° ENE 04:16:08 10° SE
Nadezhda 2 Rocket 4.4 04:08:39 40° SSW 04:11:10 77° W 04:17:38 10° N
METEOR-M 4.1 04:08:34 10° N 04:13:51 62° WNW 04:13:58 62° W
Okean 1 3.9 04:16:05 37° SSE 04:17:13 52° E 04:20:58 10° NNE
YAOGAN 11 4.0 04:14:50 10° SSE 04:19:20 84° WSW 04:23:49 10° NNW
Cosmos 2322 3.9 04:25:42 47° WSW 04:25:42 47° WSW 04:30:39 10° S
H-2A R/B 4.5 04:22:31 10° NE 04:25:37 29° E 04:28:40 10° SSE
Cosmos 2344 4.3 04:19:47 10° S 04:27:23 50° ESE 04:34:21 10° NE
COBE Rocket 3.8 04:24:42 10° N 04:29:34 77° WNW 04:32:19 27° SSW
SL-08 R/B 4.3 04:25:53 22° SSW 04:29:55 68° W 04:36:00 10° N
PAYLOAD A 4.1 04:26:58 10° N 04:31:43 49° WNW 04:32:19 46° W
Cosmos 1151 Rocket 2.9 04:31:38 43° SSW 04:32:58 75° W 04:37:21 10° N
Nadezhda 1 Rocket 4.1 04:27:25 10° N 04:33:42 76° E 04:39:51 10° SSE
COSMOS 2428 2.8 04:28:25 10° NNW 04:33:56 53° WSW 04:39:26 10° S
NOSS 0 Rocket 3.8 04:28:32 10° NNW 04:34:49 84° WSW 04:41:03 10° SSE
CBERS-1 3.9 04:30:15 10° N 04:35:22 74° WNW 04:38:47 21° SSW
CZ-2C R/B 2.9 04:32:15 10° N 04:36:09 36° WNW 04:36:09 36° WNW
ALOS 4.4 04:34:05 10° NNW 04:34:42 12° NNW 04:34:42 12° NNW
USA 215 3.3 04:36:41 10° SE 04:43:15 85° NE 04:49:50 10° NW
BREEZE-M DEB (TANK) 3.5 04:42:21 34° WNW 04:43:54 51° N 04:56:10 10° ENE
Cosmos 1328 Rocket 3.9 04:39:46 10° S 04:44:08 66° E 04:48:30 10° NNE
Cosmos 2227 Rocket 2.7 04:39:08 10° S 04:44:42 62° ESE 04:50:19 10° NNE
Cosmos 44 Rocket 3.4 04:43:55 36° WSW 04:45:46 58° NW 04:50:52 10° NNE
Cosmos 1666 Rocket 3.7 04:42:32 10° N 04:46:55 74° E 04:51:13 10° SSE
ARIANE 5 R/B 3.0 04:43:39 10° NNE 04:48:36 59° ESE 04:53:29 10° S
Cosmos 1386 Rocket 4.4 04:42:29 10° SSW 04:48:46 69° W 04:54:59 10° N
Meteor 1-27 Rocket 3.8 04:47:05 12° SSW 04:52:05 56° WNW 04:57:43 10° N
DMSP B5D2-2 4.0 04:48:22 10° S 04:53:37 79° WSW 04:58:55 10° NNW
Meteor 2-20 4.4 04:50:11 10° NNW 04:56:18 68° W 05:02:22 10° S
Helios 1A 2.9 04:54:07 10° SSE 04:58:13 87° ENE 05:02:19 10° NNW
ATLAS 3B R/B 4.5 05:02:27 14° SW 05:02:27 14° SW 05:04:00 10° SW
Meteor 1-19 Rocket 4.2 04:56:08 10° SSW 05:01:38 60° WNW 05:07:03 10° N
Cosmos 1709 Rocket 4.0 04:58:26 10° S 05:04:49 88° WNW 05:11:13 10° N
Cosmos 1269 Rocket 4.0 05:00:48 10° NNW 05:06:06 88° WSW 05:11:22 10° SSE
IRS-P3 4.2 05:02:04 10° NNE 05:07:26 81° ESE 05:12:45 10° SSW
Cosmos 614 Rocket 3.9 05:06:18 10° NNW 05:11:24 65° WSW 05:16:31 10° S
Meteor 2-4 Rocket 4.0 05:05:56 10° S 05:11:51 79° E 05:17:42 10° NNE
Meteor 1-11 Rocket 4.4 05:08:18 10° NNW 05:13:32 33° W 05:18:47 10° SSW
Cosmos 1633 Rocket 3.0 05:11:08 10° NNW 05:15:30 64° W 05:19:51 10° S
GP-B 4.5 05:15:42 18° W 05:15:42 18° W 05:18:44 10° NW
Cosmos 1980 3.7 05:11:21 10° NNW 05:16:54 58° WSW 05:22:25 10° S
ATLAS CENTAUR R/B 3.5 05:14:11 10° N 05:17:02 22° NE 05:19:52 10° E
Cosmos 1484 Rocket 3.5 05:14:11 10° N 05:17:21 29° WNW 05:19:36 16° WSW
Sich 1 4.4 05:14:35 10° NW 05:17:34 18° W 05:17:37 18° W
Cosmos 1745 Rocket 4.3 05:13:00 10° SSW 05:19:01 45° WNW 05:25:07 10° N
Meteor 1-18 Rocket 4.3 05:17:11 10° S 05:23:05 89° WNW 05:28:54 10° N
USA 229 DEB 4.3 05:16:22 10° NW 05:23:30 44° WSW 05:31:02 10° S
USA 229 4.3 05:16:27 10° NW 05:23:35 44° WSW 05:31:07 10° S
H-2A R/B 2.2 05:19:17 10° NNE 05:24:45 86° ESE 05:30:07 10° SSW
BlueWalker 3 3.0 05:23:05 17° W 05:25:10 27° SW 05:28:28 10° S
PSLV R/B 4.5 05:28:28 10° NNE 05:32:31 50° E 05:36:32 10° S
SKYMED 2 3.7 05:30:14 10° SSE 05:34:33 81° ENE 05:38:55 10° N
Cosmos 1939 Rocket 2.9 05:37:11 10° N 05:40:58 52° WNW 05:44:47 10° SSW
Cosmos 2297 Rocket 3.2 05:37:27 10° WSW 05:42:10 27° NW 05:46:55 10° N
Cosmos 2074 Rocket 4.5 05:39:21 10° S 05:45:28 67° E 05:51:38 10° NNE
Cosmos 2219 3.3 05:46:41 10° SW 05:52:16 57° WNW 05:57:51 10° NNE
Cosmos 1470 Rocket 4.0 05:48:07 10° NNW 05:52:19 41° W 05:56:30 10° SSW
Cosmos 2237 Rocket 3.0 05:49:56 10° NW 05:54:44 29° WSW 05:59:31 10° SSW
